Theta_e
311 318 326 331 335 331 335 333 336 338 338 335 335 334 334 333 332 333 337 338 337 336 344 327 318 316 317 316 313 313 314 316 316 316 316 317 317 317 318 320 327 331 331 332 333 334 334 333 332
320 322 329 334 333 334 334 334 339 338 338 337 336 336 334 333 332 332 335 339 337 336 344 339 321 317 318 317 315 314 315 317 318 318 319 319 321 321 323 325 331 334 334 334 334 335 336 336 335
326 325 334 333 335 336 339 340 339 340 337 336 334 332 331 333 333 332 338 339 337 335 343 341 329 319 319 320 317 315 316 318 319 320 321 321 325 327 330 334 335 337 337 336 336 335 334 337 337
324 330 333 339 338 337 337 339 338 337 337 334 333 332 333 332 332 332 335 337 337 335 339 342 338 322 319 321 319 316 317 318 320 321 322 324 326 330 332 335 337 339 339 339 338 336 336 338 337
328 332 334 333 331 332 334 335 339 339 337 335 333 332 332 332 331 332 335 337 336 335 335 343 339 328 320 322 321 317 317 319 320 322 325 326 328 329 334 339 339 339 339 339 338 337 335 337 337
332 333 336 334 332 331 332 332 332 334 335 334 333 332 333 331 332 332 334 336 336 335 335 338 338 336 322 322 323 320 318 319 321 323 325 327 329 333 340 339 338 338 338 338 337 337 337 335 333
332 336 334 332 331 330 332 332 331 331 332 332 332 332 332 333 334 333 334 335 337 336 336 336 348 342 335 323 324 323 319 320 321 323 326 328 327 335 339 338 337 335 333 333 333 334 335 336 336
331 333 334 334 333 331 332 331 331 331 332 332 332 332 332 333 331 331 331 333 335 337 337 337 342 350 347 341 332 325 322 321 322 324 328 329 329 335 333 328 327 328 330 329 330 332 333 334 334
328 331 334 334 333 332 332 332 331 331 332 331 331 331 331 331 331 331 330 330 332 334 337 338 337 343 346 342 341 332 326 324 326 330 332 330 336 332 336 334 333 331 328 327 329 330 330 332 332
329 333 334 333 333 332 332 332 332 332 332 331 331 331 331 331 331 331 331 330 331 332 335 337 338 339 344 341 340 344 340 338 338 338 337 339 335 334 335 334 331 329 327 323 323 323 329 331 329
330 333 334 334 333 333 333 333 332 332 333 332 331 331 331 331 330 331 330 329 330 331 333 337 339 339 342 341 339 344 341 340 340 339 339 336 334 334 335 334 334 333 332 332 331 331 331 330 328
333 333 333 333 333 332 333 333 333 333 333 332 331 331 331 331 331 331 330 330 330 332 333 335 338 342 343 341 338 340 342 340 339 339 339 337 335 335 335 333 333 332 331 331 330 330 329 330 331
330 330 330 331 331 331 331 332 332 333 332 332 331 331 331 330 330 328 328 328 329 333 333 333 338 343 345 344 339 340 340 338 337 336 335 335 335 335 334 334 333 332 331 331 330 329 329 329 330
328 329 329 329 329 329 330 332 331 332 332 332 330 330 330 330 329 328 328 328 329 333 333 334 339 343 345 345 343 341 340 336 335 333 332 335 336 334 334 334 333 332 332 331 331 330 329 329 329
329 330 330 330 329 329 329 330 331 330 330 330 330 329 329 329 328 329 328 328 329 332 334 336 339 343 346 347 345 343 339 335 334 333 332 334 336 335 335 334 334 333 331 331 331 331 329 329 328
327 329 331 330 329 329 329 331 330 330 330 331 329 328 328 328 328 328 328 327 330 332 334 337 337 342 347 347 345 343 337 335 332 331 333 336 337 336 335 334 335 334 334 332 330 330 331 329 328
328 330 331 330 329 329 329 331 330 330 330 330 330 329 328 329 329 329 328 327 330 332 334 337 338 340 347 347 345 342 336 334 331 332 333 334 336 335 335 335 336 334 334 333 330 330 329 329 329
327 328 328 329 328 328 329 330 329 329 327 328 329 329 328 328 329 329 328 328 329 333 335 339 339 341 345 346 344 339 335 333 331 332 333 333 334 334 334 335 335 334 334 333 331 330 329 328 329
324 325 327 328 328 328 328 329 329 328 327 328 329 329 328 328 330 328 328 331 334 334 336 340 340 341 345 344 340 336 333 333 332 332 333 333 334 334 334 335 335 334 333 331 330 328 330 329 329
322 324 326 327 327 328 329 329 329 328 328 328 328 329 329 329 330 330 329 336 336 336 338 338 338 341 344 341 337 333 332 332 331 332 333 334 334 335 335 334 335 334 333 331 329 330 330 330 330
322 323 325 326 326 327 327 327 327 327 328 327 327 328 328 329 329 330 330 337 336 337 337 338 339 342 340 336 334 332 332 333 333 331 332 333 334 333 335 334 333 333 332 331 330 330 330 330 329
321 322 323 325 326 326 325 329 327 327 328 327 328 329 329 329 329 330 331 339 337 337 337 338 340 339 336 334 334 334 333 330 331 333 331 333 334 332 332 332 332 332 331 332 331 329 329 328 330
320 320 322 324 324 325 324 325 325 326 327 328 328 328 329 328 329 329 336 338 337 336 337 338 339 336 336 336 333 333 331 330 331 331 333 335 334 333 332 331 332 332 331 331 330 329 329 329 330
319 320 321 323 324 326 325 325 326 327 328 329 329 328 329 329 329 332 337 336 336 335 337 337 337 336 336 334 334 334 333 333 332 333 334 334 336 334 332 330 331 331 331 331 330 329 329 330 330
320 321 323 326 326 328 324 326 327 328 328 328 329 328 328 331 334 337 338 337 336 336 336 337 336 337 335 334 333 334 334 335 335 334 333 334 333 334 333 331 332 332 332 332 332 330 330 330 333
320 321 323 327 327 325 325 327 328 328 327 327 328 328 332 335 336 337 337 337 336 335 335 335 336 335 333 333 332 334 335 334 333 334 333 331 333 333 331 332 332 333 333 332 332 331 332 332 331
320 322 322 324 325 326 328 328 329 329 329 326 328 328 333 336 337 337 337 337 335 335 335 335 335 333 333 331 333 334 335 334 335 334 332 332 333 331 331 332 332 332 332 333 333 333 333 333 333
320 321 322 325 327 329 328 330 331 329 327 327 330 329 333 337 337 337 337 336 335 334 335 335 334 333 331 332 333 333 334 335 334 333 332 331 331 329 331 332 332 333 333 333 334 332 333 333 333
318 321 322 324 324 327 330 329 330 330 329 329 331 333 337 338 337 337 336 335 335 335 335 334 333 331 331 332 332 333 333 334 333 333 331 331 331 329 330 330 332 332 332 333 333 333 333 331 328
318 321 322 326 327 325 328 328 327 327 329 329 331 335 338 337 336 336 336 336 335 335 335 334 330 329 331 331 332 332 334 335 334 332 331 330 331 329 329 329 329 331 331 332 332 331 332 330 329
Wind_Speed
11 11 11 9 7 7 14 9 15 2 6 0 4 7 11 10 8 5 6 6 11 19 23 30 28 27 24 21 19 17 15 13 10 8 7 6 6 5 5 6 6 5 4 4 5 5 6 7 6
12 12 9 7 8 13 13 12 9 9 8 3 9 9 12 8 7 5 8 9 11 19 22 27 29 28 24 22 20 18 16 14 11 9 7 7 7 7 6 8 7 7 7 6 7 8 8 8 8
11 13 8 6 13 14 6 5 8 4 1 8 7 2 8 5 7 7 10 6 11 18 21 25 29 29 26 23 21 19 17 14 13 10 9 9 9 9 9 9 9 10 10 10 10 10 11 11 11
12 10 8 11 18 16 10 4 2 1 7 5 10 11 2 10 3 7 4 7 10 14 18 22 27 30 27 25 23 20 17 15 14 12 11 11 12 12 12 11 11 12 14 14 13 14 13 14 13
18 9 13 14 17 18 7 9 13 11 10 5 6 12 4 13 6 2 2 5 9 12 16 19 26 30 29 27 24 21 18 16 14 13 11 12 13 13 13 13 14 14 15 16 16 18 15 14 14
9 11 14 15 19 17 6 8 11 14 15 9 4 13 8 6 6 7 3 3 9 11 16 18 22 28 31 29 26 23 20 17 15 14 12 12 12 13 15 17 14 14 13 13 13 14 14 16 16
16 13 16 18 18 15 4 6 10 14 11 12 3 6 11 1 8 5 6 6 9 13 17 19 17 24 30 31 28 26 22 20 18 15 14 13 13 14 17 15 14 14 14 14 15 15 16 15 14
14 14 22 18 17 18 7 5 15 11 11 8 3 9 13 16 15 10 14 12 12 15 17 19 18 17 21 24 29 27 24 21 19 17 15 15 14 16 18 19 17 16 13 13 13 13 14 16 18
17 15 17 22 21 16 14 16 10 2 11 14 10 18 18 20 20 17 17 19 18 15 16 19 22 20 21 23 23 29 25 22 19 16 16 14 13 15 15 17 15 13 16 16 12 12 12 14 18
19 17 24 23 19 16 20 19 17 17 13 17 15 20 22 14 13 18 19 21 22 20 18 21 22 23 22 22 23 21 20 19 17 16 15 13 12 14 12 8 12 18 18 14 14 13 14 14 14
25 24 23 24 24 20 21 24 20 21 22 21 20 19 18 21 20 19 24 24 23 24 13 20 24 24 25 24 24 20 21 19 19 17 16 15 13 13 13 13 13 11 14 9 12 14 13 13 14
28 30 27 26 27 26 30 28 31 25 26 23 19 20 19 22 18 17 22 23 25 22 19 18 24 27 25 24 25 22 20 21 18 16 16 14 14 13 13 13 13 10 13 11 10 12 10 10 11
33 32 31 30 31 33 33 35 31 33 25 25 25 21 21 21 20 23 24 23 23 23 19 17 25 28 27 28 25 24 23 21 18 16 14 15 15 13 12 13 12 13 11 11 11 11 13 12 13
31 33 34 34 34 34 33 35 30 28 26 29 27 23 24 23 20 21 22 21 24 22 19 17 24 30 29 29 24 26 23 21 19 16 14 15 15 13 13 13 13 16 14 14 13 13 14 14 16
34 36 35 35 30 31 25 33 36 29 27 28 29 24 25 20 21 18 23 22 22 21 19 18 23 29 30 30 28 25 23 21 19 16 14 14 14 13 13 15 15 15 16 14 13 15 15 16 17
33 34 30 32 33 31 27 38 28 27 26 28 22 20 17 19 21 22 26 24 20 19 18 18 22 27 28 27 27 24 22 20 17 14 13 14 14 13 14 17 16 16 13 13 14 16 17 18 18
27 29 36 31 28 26 29 40 29 25 26 27 29 24 15 20 23 25 25 23 20 19 19 20 21 25 27 25 25 23 20 18 16 13 13 13 14 13 16 18 17 16 13 12 13 16 17 18 15
31 33 30 33 26 26 32 36 31 24 23 25 29 20 20 23 24 26 26 22 18 14 14 16 20 22 25 24 22 21 19 17 14 13 13 12 13 13 16 17 16 15 13 13 15 16 17 15 13
29 27 31 32 27 29 31 32 25 22 26 26 26 25 19 24 24 28 24 10 7 10 11 15 19 22 25 24 24 22 19 15 13 13 11 12 12 14 16 15 15 14 14 16 15 17 13 15 13
33 32 33 29 25 23 27 28 27 25 25 25 28 28 24 22 26 21 16 5 6 9 13 17 19 22 24 21 22 19 15 14 13 11 10 10 12 13 12 14 14 14 14 15 14 15 14 15 13
33 33 29 30 24 22 23 27 30 27 25 26 28 29 27 26 25 19 16 8 8 11 15 18 21 24 23 20 17 12 11 6 8 10 11 12 10 11 11 12 14 13 13 13 13 13 15 14 13
32 30 27 25 21 20 21 23 26 20 24 24 25 22 21 21 20 19 10 9 11 12 15 19 21 23 21 20 16 14 13 11 8 5 4 3 7 10 10 10 10 9 9 10 11 13 14 15 13
37 25 26 26 21 23 26 18 18 20 22 22 21 22 23 21 21 20 13 12 13 16 19 21 23 23 21 17 15 13 9 8 5 5 4 6 7 9 9 7 5 8 8 9 9 8 11 12 13
30 27 25 20 19 20 24 21 22 22 21 22 21 20 19 19 18 6 13 16 17 19 21 23 24 21 19 16 13 9 7 2 3 5 2 5 6 6 7 7 6 4 5 5 6 8 9 7 10
28 25 16 17 17 22 16 19 23 19 20 19 15 17 12 6 9 12 15 15 20 22 24 24 23 20 18 15 12 9 6 4 5 4 8 5 4 5 7 5 3 3 4 5 6 7 6 7 6
32 28 17 29 13 18 23 18 13 16 5 8 15 10 8 9 11 14 16 17 22 24 25 23 21 20 17 15 12 9 7 9 4 4 4 5 3 6 6 4 2 2 4 5 6 7 5 5 4
39 28 35 24 20 14 15 16 19 18 16 8 10 16 12 11 13 16 18 17 22 24 23 22 21 19 16 14 12 9 7 2 2 2 2 5 5 5 5 2 2 2 3 4 3 3 2 1 3
32 29 22 20 25 19 13 12 8 5 10 12 12 16 14 14 16 17 17 18 22 23 22 21 19 17 15 14 11 10 8 5 4 3 1 4 5 4 5 2 2 3 3 3 2 3 3 1 1
25 25 29 22 19 14 12 12 7 4 4 14 14 16 16 17 17 17 17 20 23 22 21 20 18 16 15 13 11 11 9 7 5 4 4 7 7 5 5 4 3 4 4 3 4 3 3 2 3
32 29 31 17 25 18 11 3 4 9 10 13 9 12 16 17 18 18 18 18 22 21 20 19 16 16 15 13 11 9 8 6 6 7 6 8 7 6 5 3 2 8 5 2 3 3 4 7 9
Wind_Direction
186 183 196 211 235 237 252 230 252 146 221 132 315 286 332 341 331 0 100 129 138 159 168 182 187 186 185 185 186 186 189 190 194 198 203 210 219 224 236 236 237 238 240 253 258 255 263 273 271
179 194 217 269 251 221 234 210 185 251 62 320 282 263 246 304 7 353 121 146 155 163 170 178 190 191 191 191 191 192 196 198 204 213 221 229 235 241 250 254 252 248 259 265 271 273 263 256 267
217 202 257 224 235 263 335 12 261 96 315 284 277 165 319 329 83 355 60 167 165 170 177 182 194 194 196 197 198 198 202 206 212 222 234 241 244 252 256 256 257 259 263 269 272 268 264 258 252
191 211 255 257 252 231 305 284 147 312 198 227 298 296 149 69 6 20 24 173 181 184 185 192 204 197 200 202 203 203 207 213 221 230 240 248 254 255 260 261 258 262 262 263 264 265 262 264 260
228 260 246 239 250 271 289 287 314 293 285 239 246 289 318 102 89 55 80 196 213 199 194 193 213 207 204 207 207 207 209 217 227 239 244 254 261 265 264 260 263 266 266 265 268 268 261 265 262
225 235 249 247 242 246 218 291 279 275 273 283 207 260 288 111 87 8 24 211 223 220 201 192 214 215 210 212 212 213 212 218 228 239 252 262 273 271 267 261 267 266 269 271 275 277 274 270 258
240 237 249 263 272 266 240 309 273 268 273 270 269 319 297 41 80 331 309 274 241 227 207 206 198 212 218 214 216 217 218 220 226 234 247 254 267 268 271 266 264 264 267 270 270 267 268 267 260
242 252 266 261 261 269 286 264 270 285 276 41 341 273 288 321 345 320 281 270 248 234 224 213 208 205 205 210 218 220 222 225 228 232 241 250 264 268 265 267 271 271 267 270 270 266 265 262 258
232 255 252 248 251 265 271 246 256 208 289 297 286 301 296 294 289 296 291 289 265 257 230 221 215 211 206 208 215 221 222 225 228 233 244 253 262 268 250 251 240 260 271 271 267 266 264 263 260
229 237 243 261 265 265 273 284 293 276 259 272 269 280 286 305 288 279 290 290 279 254 232 222 216 211 206 208 208 209 215 217 219 227 236 240 250 256 264 271 264 277 278 262 266 260 251 252 256
230 241 253 263 270 272 271 273 276 276 273 279 289 294 299 295 291 282 275 280 281 278 263 218 206 210 207 207 202 205 210 213 217 225 229 237 248 256 256 262 257 238 254 253 254 242 231 242 247
242 240 248 260 265 273 273 277 283 268 272 279 289 285 286 289 287 286 290 290 287 253 246 228 208 201 206 209 205 204 203 208 210 215 223 233 240 244 251 266 271 259 254 266 261 263 273 271 269
242 245 252 255 261 267 275 277 276 272 270 280 285 284 279 273 278 281 288 291 276 268 265 247 201 196 202 209 207 205 205 203 210 211 218 224 237 243 254 263 259 271 265 258 262 259 268 264 258
250 256 256 261 260 266 271 270 264 263 260 266 279 275 272 274 279 284 290 285 274 265 262 252 199 193 199 205 216 197 199 200 203 212 221 220 232 240 253 256 246 249 257 255 262 258 260 256 260
255 258 261 260 265 264 265 267 263 266 266 272 272 270 264 264 271 287 291 284 268 261 253 243 207 195 196 202 209 200 202 201 199 210 217 222 227 238 248 260 250 250 250 252 252 258 257 258 251
249 253 256 252 252 252 254 259 264 275 270 268 268 260 263 269 278 287 291 285 268 259 251 232 217 202 197 201 203 202 205 201 204 206 216 219 230 239 250 256 258 258 253 249 251 248 251 250 262
238 245 240 253 251 252 248 258 255 261 268 264 266 265 274 267 278 286 287 280 259 250 243 236 216 205 196 201 201 202 202 197 203 206 218 223 233 244 249 258 258 256 246 242 244 247 245 249 255
228 239 245 255 253 243 243 256 263 265 264 271 273 258 252 274 271 282 285 278 258 256 245 220 204 198 190 192 195 200 197 203 203 210 223 231 241 251 252 256 255 252 235 237 241 244 248 237 243
242 246 247 250 250 237 255 270 263 257 262 264 267 264 261 267 278 278 277 261 262 252 221 196 190 192 180 186 189 194 195 201 206 217 227 240 251 260 256 253 249 241 236 237 236 247 243 247 257
242 249 249 258 258 256 258 262 268 261 263 262 268 271 267 266 274 272 267 154 211 206 192 184 185 177 179 181 191 191 197 199 212 218 222 237 259 262 260 252 250 244 237 238 236 231 235 243 237
231 236 245 254 262 262 267 270 264 264 264 270 265 270 272 265 266 267 251 164 176 188 183 175 173 170 177 177 181 175 180 194 203 224 232 235 243 259 250 254 257 255 246 241 236 230 233 239 229
235 228 241 253 260 256 249 266 258 263 264 259 264 264 258 259 258 250 215 155 172 175 169 163 162 165 171 164 165 173 184 205 211 222 271 249 247 258 256 259 255 246 240 230 234 231 231 231 231
243 236 236 238 248 263 255 259 270 270 267 269 265 258 258 259 250 246 152 161 167 163 161 158 158 163 157 171 169 174 211 191 235 233 227 244 258 259 259 241 237 222 225 234 236 232 227 224 221
238 235 241 237 240 248 246 252 263 266 269 268 263 254 249 239 229 164 135 150 153 158 154 152 156 155 159 162 163 194 164 224 239 214 264 266 251 247 243 236 224 217 225 231 223 213 210 213 220
224 222 221 228 228 242 238 243 261 279 276 271 275 249 261 89 127 150 152 153 155 152 149 152 153 153 159 159 160 161 164 185 208 251 243 239 246 237 213 204 223 234 231 220 211 204 206 215 224
223 212 210 211 216 235 224 243 261 250 266 285 238 246 145 173 151 159 157 151 151 150 152 151 153 154 158 161 162 160 166 187 207 200 319 84 189 199 172 167 191 208 208 212 211 212 210 221 235
211 217 217 240 238 249 239 216 233 251 252 242 222 193 150 160 157 156 148 153 150 152 154 152 153 155 161 160 162 164 174 171 95 86 201 129 174 163 150 133 154 165 153 198 221 208 188 248 279
232 210 207 222 243 234 245 216 242 172 206 180 177 178 155 154 158 150 151 149 150 152 151 152 156 158 160 161 164 172 166 176 158 159 131 114 162 141 139 148 145 139 109 103 79 113 140 159 332
216 211 212 218 227 230 237 240 201 182 214 180 177 158 153 163 157 152 149 150 150 154 151 154 155 158 158 164 174 158 160 181 164 152 153 147 160 169 179 162 141 115 88 83 99 116 119 149 259
215 214 204 220 213 234 254 158 88 185 200 188 169 130 154 162 155 154 152 154 155 156 154 158 157 158 163 173 171 173 163 180 153 171 160 154 173 179 175 177 130 88 69 66 99 125 159 172 176